Wenatchee, WA

7:24 AM PDT on April 23, 2017 (GMT -0700)
Pangborn Memorial

Weather History for KEAT - April, 2013

Change the Weather History Date:

Friday, April 5, 2013

  Actual Average Record
Temperature  
Mean Temperature 52 °F 44 °F  
Max Temperature 59 °F 54 °F 78 °F (1977)
Min Temperature 45 °F 33 °F 23 °F (2015)
Degree Days  
Heating Degree Days 13 21  
Month to date heating degree days 72 107  
Since 1 July heating degree days 5714 6115  
Cooling Degree Days 0 0  
Month to date cooling degree days 0 0  
Year to date cooling degree days 0 0  
Growing Degree Days 4 (Base 50)    
Moisture  
Dew Point 44 °F    
Average Humidity 83    
Maximum Humidity 100    
Minimum Humidity 39    
Precipitation  
Precipitation 0.01 in 0.05 in 0.29 in (2010)
Month to date precipitation 0.12 0.26  
Year to date precipitation 2.88 5.30  
Snow  
Snow 0.00 in 0.10 in - ()
Month to date snowfall 0.0 0.6  
Since 1 July snowfall 48.2 52.3  
Snow Depth 0.00 in    
Sea Level Pressure  
Sea Level Pressure 29.76 in    
Wind  
Wind Speed 2 mph (West)    
Max Wind Speed 17 mph    
Max Gust Speed 24 mph    
Visibility 6 miles    
Events Fog , Rain    
T = Trace of Precipitation, MM = Missing Value Source: NWS Daily Summary

Daily Weather History Graph

Daily Weather History Graph

Search for Another Location

Airport or City:

Trip Planner

Search our weather history database for the weather conditions in past years. The results will help you decide how hot, cold, wet, or windy it might be!

Date:

Astronomy

Apr. 05, 2013 Rise Set
Actual Time 6:31 AM PDT 7:36 PM PDT
Civil Twilight 5:59 AM PDT 8:08 PM PDT
Nautical Twilight 5:22 AM PDT 8:45 PM PDT
Astronomical Twilight 4:42 AM PDT 9:26 PM PDT
Moon 4:00 AM PDT (4/5) 2:49 PM PDT (4/5)
Length of Visible Light 14h 08m
Length of Day
13h 05m
Waning Crescent, 22% of the Moon is Illuminated
Apr 5
Waning Crescent
Apr 10
New
Apr 18
First Quarter
Apr 25
Full
May 2
Last Quarter

Hourly Weather History & Observations

Time (PDT) Temp. Windchill Dew Point Humidity Pressure Visibility Wind Dir Wind Speed Gust Speed Precip Events Conditions
12:55 AM 48.9 °F - 46.0 °F 90% 29.75 in 10.0 mi Calm Calm - N/A   Overcast
1:55 AM 48.0 °F - 46.0 °F 93% 29.75 in 5.0 mi Calm Calm - N/A   Overcast
2:05 AM 48.2 °F - 46.4 °F 93% 29.74 in 2.5 mi East 3.5 mph - N/A   Overcast
2:25 AM 48.2 °F - 46.4 °F 93% 29.74 in 3.0 mi Calm Calm - N/A   Overcast
2:34 AM 48.2 °F - 46.4 °F 93% 29.73 in 3.0 mi Calm Calm - N/A   Overcast
2:55 AM 48.0 °F - 46.0 °F 93% 29.74 in 3.0 mi Calm Calm - N/A   Overcast
3:00 AM 48.2 °F - 46.4 °F 93% 29.74 in 1.2 mi Calm Calm - N/A   Overcast
3:05 AM 46.4 °F 45.2 °F 46.4 °F 100% 29.74 in 0.2 mi NW 3.5 mph - N/A Fog Fog
3:16 AM 48.2 °F - 46.4 °F 93% 29.74 in 1.2 mi NNW 3.5 mph - N/A   Overcast
3:21 AM 48.2 °F - 46.4 °F 93% 29.74 in 3.0 mi Calm Calm - N/A   Overcast
3:32 AM 48.2 °F - 46.4 °F 93% 29.74 in 5.0 mi Calm Calm - N/A   Overcast
3:55 AM 48.9 °F - 46.0 °F 90% 29.75 in 4.0 mi East 4.6 mph - N/A   Overcast
4:15 AM 48.2 °F - 44.6 °F 87% 29.75 in 1.0 mi SE 3.5 mph - N/A   Overcast
4:22 AM 48.2 °F - 46.4 °F 93% 29.75 in 0.8 mi South 3.5 mph - N/A   Overcast
4:30 AM 46.4 °F 45.2 °F 46.4 °F 100% 29.74 in 1.2 mi SSE 3.5 mph - N/A   Overcast
4:42 AM 46.4 °F - 46.4 °F 100% 29.74 in 2.0 mi Calm Calm - N/A   Overcast
4:44 AM 46.4 °F 45.2 °F 44.6 °F 93% 29.73 in 1.8 mi East 3.5 mph - N/A   Overcast
4:55 AM 46.9 °F - 45.0 °F 93% 29.74 in 1.5 mi ESE 3.5 mph - N/A   Overcast
5:10 AM 46.4 °F - 46.4 °F 100% 29.73 in 2.0 mi Calm Calm - N/A   Mostly Cloudy
5:21 AM 46.4 °F - 44.6 °F 93% 29.74 in 2.5 mi Calm Calm - N/A   Scattered Clouds
5:33 AM 46.4 °F - 44.6 °F 93% 29.74 in 3.0 mi Calm Calm - N/A   Mostly Cloudy
5:44 AM 46.4 °F 44.3 °F 44.6 °F 93% 29.74 in 2.5 mi WNW 4.6 mph - N/A   Overcast
5:55 AM 46.9 °F - 45.0 °F 93% 29.75 in 3.0 mi WNW 3.5 mph - 0.00 in Rain Light Rain
6:06 AM 48.2 °F - 46.4 °F 93% 29.75 in 4.0 mi Calm Calm - 0.00 in Rain Light Rain
6:38 AM 48.2 °F - 44.6 °F 87% 29.75 in 5.0 mi Calm Calm - 0.02 in Rain Light Rain
6:52 AM 46.4 °F 44.3 °F 44.6 °F 93% 29.75 in 3.0 mi South 4.6 mph - 0.03 in Rain Light Rain
6:55 AM 46.9 °F - 45.0 °F 93% 29.76 in 2.5 mi Calm Calm - 0.03 in Rain Light Rain
7:03 AM 46.4 °F 45.2 °F 44.6 °F 93% 29.75 in 1.2 mi South 3.5 mph - 0.00 in Rain Light Rain
7:23 AM 46.4 °F - 44.6 °F 93% 29.76 in 3.0 mi Calm Calm - 0.00 in Rain Light Rain
7:33 AM 46.4 °F - 44.6 °F 93% 29.76 in 4.0 mi Calm Calm - 0.00 in Rain Light Rain
7:55 AM 46.9 °F - 45.0 °F 93% 29.77 in 6.0 mi ENE 3.5 mph - 0.01 in Rain Light Rain
8:11 AM 48.2 °F - 46.4 °F 93% 29.76 in 2.0 mi Calm Calm - 0.00 in   Overcast
8:22 AM 48.2 °F - 46.4 °F 93% 29.76 in 2.0 mi Calm Calm - 0.00 in Rain Light Rain
8:42 AM 48.2 °F - 44.6 °F 87% 29.76 in 5.0 mi Calm Calm - 0.00 in   Overcast
8:51 AM 48.2 °F - 46.4 °F 93% 29.76 in 9.0 mi Calm Calm - 0.00 in   Mostly Cloudy
8:55 AM 48.9 °F - 45.0 °F 86% 29.77 in 10.0 mi Calm Calm - 0.00 in   Mostly Cloudy
9:55 AM 51.1 °F - 45.0 °F 80% 29.77 in 10.0 mi SSE 4.6 mph - N/A   Scattered Clouds
10:16 AM 51.8 °F - 46.4 °F 82% 29.78 in 10.0 mi West 5.8 mph - N/A   Mostly Cloudy
10:27 AM 51.8 °F - 44.6 °F 76% 29.78 in 10.0 mi Calm Calm - N/A   Scattered Clouds
10:37 AM 53.6 °F - 46.4 °F 77% 29.78 in 10.0 mi South 3.5 mph - N/A   Mostly Cloudy
10:52 AM 53.6 °F - 44.6 °F 72% 29.79 in 10.0 mi WSW 3.5 mph - N/A   Mostly Cloudy
10:55 AM 53.1 °F - 45.0 °F 74% 29.79 in 10.0 mi WSW 4.6 mph - N/A   Mostly Cloudy
11:55 AM 53.1 °F - 44.1 °F 71% 29.80 in 10.0 mi Calm Calm - N/A   Clear
12:55 PM 57.0 °F - 43.0 °F 59% 29.80 in 10.0 mi ENE 3.5 mph - N/A   Overcast
1:55 PM 59.0 °F - 39.9 °F 49% 29.80 in 10.0 mi Calm Calm - N/A   Mostly Cloudy
2:55 PM 62.1 °F - 37.0 °F 39% 29.80 in 10.0 mi West 17.3 mph 24.2 mph N/A   Partly Cloudy
3:55 PM 61.0 °F - 37.0 °F 41% 29.81 in 10.0 mi WSW 11.5 mph - N/A   Scattered Clouds
4:55 PM 60.1 °F - 37.9 °F 44% 29.81 in 10.0 mi West 11.5 mph - N/A   Scattered Clouds
5:55 PM 57.9 °F - 41.0 °F 53% 29.81 in 10.0 mi NW 12.7 mph - N/A   Mostly Cloudy
6:55 PM 55.9 °F - 41.0 °F 57% 29.81 in 10.0 mi NW 10.4 mph - 0.00 in   Overcast
7:55 PM 54.0 °F - 41.0 °F 62% 29.80 in 10.0 mi NNW 3.5 mph - N/A   Overcast
8:55 PM 52.0 °F - 39.9 °F 63% 29.81 in 10.0 mi NNW 6.9 mph - N/A   Partly Cloudy
9:55 PM 51.1 °F - 39.9 °F 66% 29.80 in 10.0 mi WSW 3.5 mph - N/A   Clear
10:55 PM 51.1 °F - 39.0 °F 63% 29.79 in 10.0 mi North 8.1 mph - N/A   Mostly Cloudy
11:55 PM 50.0 °F - 39.0 °F 66% 29.78 in 10.0 mi North 4.6 mph - N/A   Partly Cloudy